GW2652 Weather Reports


Display with metric or nautical units.
time (UTC)temp
F
wind
direction
speed
MPH
gust
MPH
rain 1hr
in
rain 24hr
in
rain mn
in
humidity
%
barometer
mb
20260509094806 40 164 0.0 0.0 0.00 0.04 0.04 99 1007.9
20260509094302 40 164 0.0 0.0 0.00 0.04 0.04 99 1007.8
20260509093800 40 164 0.0 0.0 0.00 0.04 0.04 99 1007.8
20260509093257 40 164 0.0 0.0 0.00 0.04 0.04 99 1008.0
20260509092756 40 164 0.0 0.0 0.00 0.04 0.04 99 1008.3
20260509092253 40 164 0.0 0.0 0.00 0.04 0.04 99 1007.9
20260509091751 40 164 0.0 0.0 0.00 0.04 0.04 99 1008.0
20260509091247 40 164 0.0 0.0 0.00 0.04 0.04 99 1007.9
20260509090745 40 164 0.0 0.0 0.00 0.04 0.04 99 1008.2
20260509090242 40 164 0.0 0.0 0.00 0.04 0.04 99 1008.5
20260509085740 39 164 0.0 0.0 0.00 0.04 0.04 99 1008.4
20260509085237 40 164 0.0 0.0 0.00 0.04 0.04 99 1008.6
20260509084733 40 164 0.0 0.0 0.00 0.04 0.04 99 1008.3
20260509084230 39 164 0.0 0.0 0.07 0.04 0.04 99 1008.6
20260509083728 39 164 0.0 0.0 0.07 0.04 0.04 99 1008.4
20260509083225 39 164 0.0 0.0 0.00 0.03 0.03 99 1008.5
20260509082721 40 164 0.0 0.0 0.00 0.03 0.03 99 1008.6
20260509082218 40 164 0.0 0.0 0.00 0.03 0.03 99 1008.7
20260509081714 39 164 0.0 0.0 0.05 0.03 0.03 99 1008.8
20260509081212 39 164 0.0 0.0 0.05 0.03 0.03 99 1008.7
20260509080710 39 164 0.0 0.0 0.00 0.02 0.02 99 1008.8
20260509080208 39 164 0.0 0.0 0.07 0.02 0.02 99 1008.7
20260509075706 39 164 0.0 0.0 0.07 0.02 0.02 99 1008.5
20260509075203 39 164 0.0 0.0 0.00 0.01 0.01 99 1008.7
20260509074700 39 164 0.0 0.0 0.00 0.01 0.01 99 1008.9
20260509074156 39 164 0.0 0.0 0.00 0.01 0.01 99 1008.6
20260509073653 39 164 0.0 0.0 0.00 0.01 0.01 99 1008.6
20260509073149 39 164 0.0 0.0 0.00 0.01 0.01 99 1008.5
20260509072646 39 164 0.0 0.0 0.00 0.01 0.01 99 1008.7
20260509072143 39 164 0.0 0.0 0.00 0.01 0.01 99 1008.6
20260509071640 39 164 0.0 0.0 0.00 0.01 0.01 99 1008.3
20260509071137 39 164 0.0 0.0 0.00 0.01 0.01 99 1008.7
20260509070634 39 164 0.0 0.0 0.05 0.01 0.01 99 1008.5
20260509070130 39 164 0.0 0.0 0.05 0.01 0.01 98 1008.5
20260509065626 39 164 0.0 0.0 0.00 0.00 0.00 98 1008.5
20260509065123 39 164 0.0 0.0 0.00 0.00 0.00 97 1008.4
20260509064620 39 164 0.0 0.0 0.00 0.00 0.00 97 1008.6
20260509064118 39 164 0.0 0.0 0.00 0.00 0.00 97 1008.7
20260509063614 39 164 0.0 0.0 0.00 0.00 0.00 97 1008.6
20260509063111 38 164 0.0 0.0 0.00 0.00 0.00 97 1009.1
20260509062608 38 164 0.0 0.0 0.00 0.00 0.00 97 1008.9
20260509062105 38 164 0.0 0.0 0.00 0.00 0.00 96 1008.8
20260509061602 38 164 0.0 0.0 0.00 0.00 0.00 96 1009.2
20260509061059 38 164 0.0 0.0 0.00 0.00 0.00 96 1008.9
20260509060557 38 164 0.0 0.0 0.00 0.00 0.00 96 1009.1
20260509060052 38 165 0.0 0.0 0.00 0.00 0.00 96 1008.9
20260509055548 38 165 0.0 0.0 0.00 0.00 0.00 96 1009.1
20260509055044 37 161 0.0 0.0 0.00 0.00 0.00 96 1009.2
20260509054541 37 161 0.0 0.0 0.00 0.00 0.00 96 1008.9
20260509054039 37 161 0.0 0.0 0.00 0.00 0.00 97 1009.0
20260509053537 37 161 0.0 0.0 0.00 0.00 0.00 97 1009.2
20260509053034 37 161 0.0 0.0 0.00 0.00 0.00 97 1009.2
20260509052532 37 161 0.0 0.0 0.00 0.00 0.00 97 1009.2
20260509052029 37 161 0.0 0.0 0.00 0.00 0.00 97 1009.3
20260509051527 37 160 0.0 0.0 0.00 0.00 0.00 98 1009.1
20260509051024 37 159 0.0 0.0 0.00 0.00 0.00 98 1009.3
20260509050521 36 166 0.0 1.0 0.00 0.00 0.00 98 1009.3
20260509050017 36 127 0.0 0.0 0.00 0.00 0.00 98 1009.2
20260509045514 36 127 0.0 0.0 0.00 0.00 0.00 99 1009.4
20260509045011 36 127 0.0 0.0 0.00 0.00 0.00 99 1009.5
20260509044509 36 127 0.0 0.0 0.00 0.00 0.00 99 1009.5
20260509044007 36 127 0.0 0.0 0.00 0.00 0.00 99 1009.5
20260509043502 35 127 0.0 0.0 0.00 0.00 0.00 99 1009.6
20260509042957 35 127 0.0 0.0 0.00 0.00 0.00 99 1009.7
20260509042455 35 127 0.0 0.0 0.00 0.00 0.00 99 1009.6
20260509041951 35 127 0.0 0.0 0.00 0.00 0.00 99 1009.7
20260509041448 35 149 0.0 0.0 0.00 0.00 0.00 99 1009.7
20260509040946 35 150 0.0 0.0 0.00 0.00 0.00 99 1009.6
20260509040444 35 150 0.0 0.0 0.00 0.00 0.00 99 1009.6
20260509035940 35 150 0.0 0.0 0.00 0.11 0.11 99 1009.5
20260509035437 35 150 0.0 0.0 0.00 0.11 0.11 99 1009.5
20260509034933 35 150 0.0 0.0 0.00 0.11 0.11 99 1009.5
20260509034431 36 150 0.0 0.0 0.00 0.11 0.11 99 1009.5
20260509033928 36 150 0.0 0.0 0.00 0.11 0.11 99 1009.4
20260509033425 36 150 0.0 0.0 0.00 0.11 0.11 99 1009.7
20260509032922 37 150 0.0 0.0 0.00 0.11 0.11 99 1009.7
20260509032419 36 150 0.0 0.0 0.00 0.11 0.11 98 1009.6
20260509031917 37 150 0.0 0.0 0.00 0.11 0.11 98 1009.7
20260509031414 36 150 0.0 0.0 0.00 0.11 0.11 98 1009.8
20260509030911 36 150 0.0 0.0 0.00 0.11 0.11 97 1009.4
20260509030409 36 150 0.0 0.0 0.00 0.11 0.11 97 1009.8
20260509025906 37 150 0.0 0.0 0.00 0.11 0.11 97 1009.7
20260509025402 37 150 0.0 0.0 0.00 0.11 0.11 96 1009.6
20260509024857 37 150 0.0 0.0 0.00 0.11 0.11 96 1009.9
20260509024353 38 150 0.0 0.0 0.00 0.11 0.11 96 1009.6
20260509023851 38 150 0.0 0.0 0.00 0.11 0.11 95 1009.7
20260509023348 38 150 0.0 0.0 0.00 0.11 0.11 95 1009.8
20260509022844 39 150 0.0 0.0 0.00 0.11 0.11 95 1009.8
20260509022341 39 150 0.0 0.0 0.00 0.11 0.11 94 1009.8
20260509021838 39 150 0.0 0.0 0.00 0.11 0.11 94 1009.8
20260509021335 40 150 0.0 0.0 0.00 0.11 0.11 94 1009.9
20260509020833 40 150 0.0 0.0 0.00 0.11 0.11 93 1010.1
20260509020331 40 150 0.0 0.0 0.00 0.11 0.11 93 1009.9
20260509015823 41 150 0.0 0.0 0.00 0.11 0.11 94 1009.7
20260509015321 41 150 0.0 0.0 0.00 0.11 0.11 93 1010.0
20260509014817 41 150 0.0 0.0 0.00 0.11 0.11 92 1009.8
20260509014314 42 150 0.0 0.0 0.00 0.11 0.11 92 1009.6
20260509013811 42 150 0.0 0.0 0.00 0.11 0.11 91 1009.5
20260509013307 42 150 0.0 0.0 0.00 0.11 0.11 90 1009.6
20260509012803 43 150 0.0 0.0 0.00 0.11 0.11 88 1009.5
20260509012300 43 150 0.0 0.0 0.00 0.11 0.11 89 1009.6
20260509011757 42 150 0.0 0.0 0.00 0.11 0.11 90 1009.5
20260509011254 44 150 0.0 0.0 0.00 0.11 0.11 89 1009.4
20260509010752 44 150 0.0 0.0 0.00 0.11 0.11 87 1009.2
20260509010249 44 150 0.0 0.0 0.00 0.11 0.11 88 1009.2
20260509005746 45 150 0.0 0.0 0.00 0.11 0.11 88 1009.2
20260509005243 45 150 0.0 0.0 0.00 0.11 0.11 84 1009.1
20260509004738 45 150 0.0 0.0 0.00 0.11 0.11 86 1009.0
20260509004235 45 151 0.0 0.0 0.00 0.11 0.11 85 1009.0
20260509003733 45 151 0.0 0.0 0.00 0.11 0.11 86 1008.9
20260509003231 45 151 0.0 0.0 0.00 0.11 0.11 85 1008.9
20260509002728 46 151 0.0 0.0 0.00 0.11 0.11 85 1008.8
20260509002225 45 151 0.0 0.0 0.00 0.11 0.11 82 1008.8
20260509001723 46 151 0.0 0.0 0.00 0.11 0.11 82 1009.0
20260509001218 46 151 0.0 0.0 0.00 0.11 0.11 80 1008.6
20260509000717 46 151 0.0 0.0 0.00 0.11 0.11 80 1008.6
20260509000213 46 151 0.0 0.0 0.00 0.11 0.11 79 1008.5
20260508235710 47 151 0.0 0.0 0.00 0.11 0.11 78 1008.8
20260508235206 47 151 0.0 0.0 0.00 0.11 0.11 78 1008.4
20260508234704 48 151 0.0 0.0 0.00 0.11 0.11 74 1008.7
20260508234200 48 151 0.0 0.0 0.00 0.11 0.11 75 1008.5
20260508233654 49 151 0.0 0.0 0.00 0.11 0.11 66 1008.3
20260508233152 50 151 0.0 0.0 0.00 0.11 0.11 68 1008.4
20260508232649 50 151 0.0 0.0 0.00 0.11 0.11 63 1008.5
20260508232145 51 151 0.0 0.0 0.00 0.11 0.11 62 1008.3
20260508231643 52 151 0.0 0.0 0.00 0.11 0.11 62 1008.2
20260508231140 53 151 1.0 1.0 0.00 0.11 0.11 59 1008.5
20260508230636 53 150 0.0 0.0 0.00 0.11 0.11 54 1008.3
20260508230133 53 150 0.0 0.0 0.00 0.11 0.11 53 1008.0
20260508225631 54 201 0.0 0.0 0.00 0.11 0.11 53 1008.5
20260508225126 54 100 0.0 0.0 0.00 0.11 0.11 51 1008.2
20260508224625 54 110 2.0 3.0 0.00 0.11 0.11 50 1008.4
20260508224122 54 286 4.0 4.0 0.00 0.11 0.11 51 1008.4
20260508223620 55 96 1.0 1.0 0.00 0.11 0.11 49 1008.3
20260508223116 55 245 3.0 6.0 0.00 0.11 0.11 51 1007.8
20260508222614 55 219 1.0 2.0 0.00 0.11 0.11 48 1008.0
20260508222111 54 217 1.0 2.0 0.00 0.11 0.11 52 1008.2
20260508221607 54 204 0.0 0.0 0.00 0.11 0.11 50 1008.2
20260508221103 53 209 0.0 1.0 0.00 0.11 0.11 51 1007.9
20260508220600 53 301 3.0 4.0 0.00 0.11 0.11 52 1008.4
20260508220056 52 171 1.0 2.0 0.00 0.11 0.11 52 1008.3
20260508215553 53 71 1.0 2.0 0.00 0.11 0.11 50 1008.0
20260508215050 53 159 0.0 0.0 0.00 0.11 0.11 54 1008.0
20260508214547 53 219 1.0 1.0 0.00 0.11 0.11 51 1008.6
20260508214043 55 72 1.0 1.0 0.00 0.11 0.11 51 1008.3
20260508213541 55 110 1.0 2.0 0.00 0.11 0.11 50 1008.5
20260508213036 54 22 2.0 4.0 0.00 0.11 0.11 52 1008.0
20260508212533 53 213 2.0 2.0 0.00 0.11 0.11 50 1008.0
20260508212030 55 167 0.0 1.0 0.00 0.11 0.11 52 1008.5
20260508211525 53 210 1.0 2.0 0.00 0.11 0.11 51 1008.4
20260508211022 54 15 3.0 3.0 0.00 0.11 0.11 51 1008.2
20260508210518 54 305 4.0 6.0 0.00 0.11 0.11 52 1008.3
20260508210016 54 104 1.0 2.0 0.00 0.11 0.11 53 1008.4
20260508205513 54 316 6.0 8.0 0.00 0.11 0.11 51 1008.6
20260508205009 54 297 6.0 9.0 0.00 0.11 0.11 55 1008.5
20260508204507 54 138 2.0 3.0 0.00 0.11 0.11 52 1008.6
20260508204002 53 219 3.0 6.0 0.00 0.11 0.11 51 1008.6
20260508203458 53 250 2.0 3.0 0.00 0.11 0.11 54 1008.7
20260508202953 52 156 1.0 2.0 0.00 0.11 0.11 56 1008.6
20260508202451 51 214 1.0 2.0 0.00 0.11 0.11 55 1009.0
20260508201948 52 305 3.0 7.0 0.00 0.11 0.11 56 1008.7
20260508201444 53 272 3.0 7.0 0.00 0.11 0.11 55 1008.7
20260508200941 52 280 4.0 7.0 0.00 0.11 0.11 59 1008.9
20260508200439 52 125 2.0 2.0 0.00 0.11 0.11 56 1008.8
20260508195933 52 121 2.0 3.0 0.00 0.11 0.11 60 1009.1
20260508195431 52 128 3.0 4.0 0.00 0.11 0.11 59 1009.0
20260508194926 53 78 2.0 4.0 0.00 0.11 0.11 61 1008.9
20260508194424 52 174 1.0 2.0 0.00 0.11 0.11 63 1008.9
20260508193921 52 274 6.0 9.0 0.00 0.11 0.11 62 1009.3
20260508193418 51 270 2.0 4.0 0.00 0.11 0.11 66 1009.1
20260508192914 52 268 0.0 1.0 0.00 0.11 0.11 69 1009.2
20260508192411 53 120 1.0 2.0 0.00 0.11 0.11 65 1009.5
20260508191908 54 138 0.0 1.0 0.00 0.11 0.11 66 1009.4
20260508191405 52 96 0.0 0.0 0.00 0.11 0.11 72 1009.5
20260508190856 49 232 1.0 2.0 0.00 0.11 0.11 70 1009.2
20260508190353 50 158 0.0 1.0 0.00 0.11 0.11 70 1009.7
20260508185849 49 286 5.0 6.0 0.00 0.11 0.11 70 1009.5
20260508185347 48 184 1.0 2.0 0.00 0.11 0.11 75 1009.7
20260508184844 47 237 2.0 3.0 0.00 0.11 0.11 73 1010.0
20260508184341 48 217 2.0 2.0 0.00 0.11 0.11 75 1009.6
20260508183838 48 259 4.0 4.0 0.00 0.11 0.11 76 1009.9
20260508183335 47 71 2.0 3.0 0.00 0.11 0.11 74 1009.9
20260508182830 47 271 4.0 4.0 0.00 0.11 0.11 75 1009.9
20260508182327 46 207 2.0 3.0 0.00 0.11 0.11 73 1010.0
20260508181823 47 183 1.0 1.0 0.00 0.11 0.11 79 1010.0
20260508181320 46 221 3.0 3.0 0.00 0.11 0.11 80 1010.1
20260508180817 47 263 3.0 3.0 0.00 0.11 0.11 81 1010.2
20260508180314 46 76 0.0 0.0 0.00 0.11 0.11 81 1009.9
20260508175810 46 146 0.0 1.0 0.00 0.11 0.11 79 1009.9
20260508175306 48 182 3.0 4.0 0.00 0.11 0.11 78 1010.1
20260508174804 48 286 7.0 11.0 0.00 0.11 0.11 80 1009.8
20260508174301 46 228 3.0 3.0 0.00 0.11 0.11 83 1009.6
20260508173758 46 88 0.0 0.0 0.00 0.11 0.11 80 1009.5
20260508173254 46 224 1.0 1.0 0.00 0.11 0.11 81 1009.5
20260508172745 47 216 1.0 1.0 0.00 0.11 0.11 83 1009.8
20260508172243 46 172 0.0 0.0 0.00 0.11 0.11 88 1010.0
20260508171739 46 304 4.0 6.0 0.00 0.11 0.11 87 1009.9
20260508171234 45 188 1.0 1.0 0.00 0.11 0.11 87 1010.0
20260508170732 45 149 0.0 0.0 0.00 0.11 0.11 86 1010.0
20260508170230 44 164 0.0 0.0 0.00 0.11 0.11 85 1009.9
20260508165727 45 191 0.0 0.0 0.00 0.11 0.11 88 1009.8
20260508165224 44 184 0.0 0.0 0.00 0.11 0.11 96 1009.9
20260508164720 42 304 0.0 1.0 0.00 0.11 0.11 91 1010.0
20260508164217 42 160 0.0 0.0 0.00 0.11 0.11 94 1010.4
20260508163715 41 225 2.0 2.0 0.00 0.11 0.11 94 1010.3
20260508163212 40 171 1.0 1.0 0.00 0.11 0.11 95 1010.6
20260508162707 39 298 2.0 4.0 0.00 0.11 0.11 95 1010.3
20260508162205 39 272 1.0 2.0 0.00 0.11 0.11 96 1010.4
20260508161702 39 139 1.0 1.0 0.00 0.11 0.11 97 1010.4
20260508161159 38 139 0.0 0.0 0.00 0.11 0.11 98 1010.4
20260508160657 38 210 1.0 1.0 0.00 0.11 0.11 98 1010.6
20260508160155 37 211 1.0 2.0 0.00 0.11 0.11 98 1010.4
20260508155651 38 189 1.0 1.0 0.07 0.11 0.11 98 1010.4
20260508155148 38 189 0.0 1.0 0.07 0.11 0.11 97 1010.3
20260508154646 37 187 0.0 0.0 0.00 0.10 0.10 98 1010.1
20260508154142 37 201 0.0 1.0 0.00 0.10 0.10 98 1010.3
20260508153639 37 197 0.0 0.0 0.05 0.10 0.10 98 1010.1
20260508153136 37 230 0.0 1.0 0.05 0.10 0.10 98 1010.3
20260508152632 37 235 1.0 1.0 0.00 0.09 0.09 98 1010.3
20260508152127 37 232 1.0 1.0 0.00 0.09 0.09 98 1010.2
20260508151625 37 231 0.0 0.0 0.00 0.09 0.09 98 1009.8
20260508151122 36 236 1.0 1.0 0.00 0.09 0.09 98 1009.9
20260508150618 37 235 0.0 0.0 0.00 0.09 0.09 98 1010.2
20260508150114 36 255 0.0 1.0 0.00 0.09 0.09 97 1010.0
20260508145605 37 116 0.0 0.0 0.00 0.09 0.09 97 1010.3
20260508145102 37 124 0.0 0.0 0.07 0.09 0.09 97 1010.3
20260508144600 37 123 0.0 0.0 0.12 0.09 0.09 96 1010.1
20260508144057 37 123 0.0 0.0 0.12 0.08 0.08 96 1010.3
20260508143554 37 123 0.0 0.0 0.12 0.07 0.07 96 1010.3
20260508143051 38 153 0.0 0.0 0.05 0.06 0.06 96 1010.5
20260508142548 38 156 0.0 1.0 0.00 0.05 0.05 96 1010.4
20260508142044 38 155 0.0 0.0 0.07 0.05 0.05 95 1010.3
20260508141541 39 176 0.0 0.0 0.07 0.05 0.05 95 1010.0
20260508141038 39 177 1.0 1.0 0.05 0.04 0.04 94 1010.0
20260508140536 39 174 0.0 0.0 0.05 0.04 0.04 93 1009.8
20260508140032 40 186 0.0 1.0 0.07 0.03 0.03 91 1009.7
20260508135527 40 190 0.0 1.0 0.07 0.03 0.03 88 1009.6
20260508135024 41 239 1.0 1.0 0.00 0.02 0.02 87 1009.4
20260508134521 42 153 1.0 1.0 0.07 0.02 0.02 86 1009.4
20260508134018 42 123 2.0 3.0 0.07 0.02 0.02 85 1009.3
20260508133515 42 128 1.0 1.0 0.00 0.01 0.01 78 1009.2
20260508133012 43 122 0.0 1.0 0.00 0.01 0.01 83 1009.2
20260508132510 43 121 0.0 1.0 0.00 0.01 0.01 83 1009.2
20260508132006 43 207 1.0 1.0 0.00 0.01 0.01 83 1009.3
20260508131501 43 194 1.0 1.0 0.00 0.01 0.01 82 1009.2
20260508130958 43 207 2.0 2.0 0.00 0.01 0.01 82 1009.0
20260508130456 44 286 2.0 2.0 0.00 0.01 0.01 81 1008.8
20260508125951 43 180 0.0 1.0 0.00 0.01 0.01 82 1009.0
20260508125447 43 286 2.0 3.0 0.00 0.01 0.01 83 1008.8
20260508124945 43 304 5.0 7.0 0.00 0.01 0.01 82 1009.0
20260508124443 43 234 2.0 2.0 0.00 0.01 0.01 82 1008.9
20260508123940 43 158 0.0 0.0 0.00 0.01 0.01 84 1008.9
20260508123439 43 154 2.0 2.0 0.00 0.01 0.01 87 1008.9
20260508122935 44 200 0.0 2.0 0.00 0.01 0.01 85 1008.9
20260508122432 44 109 0.0 0.0 0.00 0.01 0.01 85 1009.1
20260508121929 45 64 2.0 3.0 0.00 0.01 0.01 82 1009.2
20260508121427 44 149 1.0 1.0 0.00 0.01 0.01 84 1009.1
20260508120924 44 157 1.0 1.0 0.00 0.01 0.01 85 1009.0
20260508120422 42 180 0.0 0.0 0.00 0.01 0.01 88 1009.0
20260508115919 43 149 0.0 1.0 0.00 0.01 0.01 87 1009.2
20260508115418 42 159 0.0 0.0 0.00 0.01 0.01 87 1009.2
20260508114913 42 146 0.0 0.0 0.00 0.01 0.01 89 1009.3
20260508114410 40 149 0.0 0.0 0.00 0.01 0.01 94 1009.3
20260508113907 39 149 0.0 0.0 0.00 0.01 0.01 95 1009.2
20260508113405 38 150 0.0 0.0 0.00 0.01 0.01 96 1009.6
20260508112902 38 150 0.0 0.0 0.00 0.01 0.01 97 1009.3
20260508112359 37 149 0.0 0.0 0.00 0.01 0.01 98 1009.5
20260508111855 37 149 0.0 0.0 0.00 0.01 0.01 99 1009.3
20260508111352 37 149 0.0 0.0 0.00 0.01 0.01 99 1009.3
20260508110849 37 150 0.0 0.0 0.00 0.01 0.01 99 1009.4
20260508110347 36 149 0.0 0.0 0.00 0.01 0.01 99 1009.2
20260508105847 35 149 0.0 0.0 0.00 0.01 0.01 99 1009.5
20260508105343 35 149 0.0 0.0 0.00 0.01 0.01 99 1009.2
20260508104841 34 149 0.0 0.0 0.00 0.01 0.01 99 1009.4
20260508104337 34 149 0.0 0.0 0.00 0.01 0.01 99 1009.3
20260508103835 33 149 0.0 0.0 0.00 0.01 0.01 99 1009.1
20260508103331 34 146 0.0 0.0 0.00 0.01 0.01 99 1009.4
20260508102829 33 146 0.0 0.0 0.00 0.01 0.01 99 1009.3
20260508102327 33 147 0.0 0.0 0.00 0.01 0.01 99 1009.4
20260508101824 33 147 0.0 0.0 0.00 0.01 0.01 99 1009.5
20260508101321 33 147 0.0 0.0 0.00 0.01 0.01 99 1009.3
20260508100818 33 147 0.0 0.0 0.00 0.01 0.01 99 1009.2
20260508100312 33 147 0.0 0.0 0.00 0.01 0.01 99 1009.2
20260508095807 33 147 0.0 0.0 0.00 0.01 0.01 99 1009.2